OBJECT U, 66684

Orbit data source: Space-Track

You're viewing an Uncataloged Satellite

Recently launched and/or uncataloged satellites may have evolving metadata. Metadata may include but not limited to: Owner, Maufacturer, Bus, Motor, and Mission.

OBJECT U, 66684 is a satellite in SSO that was launched on Fri, 28 Nov 2025 UTC via an FALCON 9 launch vehicle from the Air Force Western Test Range (AFWTR). Unknown objects in Earth's orbit typically refer to objects detected orbiting the Earth but have not yet been identified or cataloged. These objects could be anything from previously untracked satellites, spent rocket stages, debris from satellite collisions, or even natural meteoroids temporarily captured by Earth's gravity.

Loading next visibility...
Identifier
66684, 2025-276U
Orbit
SSO
Country
Flag of TBDTBD
Related business
None
Manufacturer
Unknown
Mission
Operational Commercial Imaging
Bus & Motor
Unknown
Mass
Unknown
Launch date (UTC)
2025-11-28 (2 months ago)
Launch vehicle
FALCON 9
Launch site
Air Force Western Test Range (AFWTR)
Object type
Unknown
Shape & HBR
Box, 0.1 m
Radar Cross Section
0.080 m²

Expand to show TLE details & history
Last TLE update: 20 hours ago

TLE from 20 hours ago
0 OBJECT U
1 66684U 25276U   26034.48975716  .00005429  00000-0  26981-3 0  9993
2 66684  97.4408 110.3743 0007053  99.1192 261.0840 15.18041876 10125
Epoch: 2026-02-03T11:45Z
TLE epoch observation values (Epoch: 2026-02-03T11:45:15.018Z)
Latitude
-0.00006°
Longitude
160.39178°
Altitude
515.602 km
Speed
7.605 km/s
True Right ascension
07h 21m 29s
True Declination
0° 00' 00"
Sunlit
Object was in full shadow at epoch
Visualization orbit readout
Latitude
Unknown
Longitude
Unknown
Altitude
Unknown
Speed
Unknown
Apparent Right ascension
Unknown
Apparent Declination
Unknown
Sunlit
N/A
Visualization observer readout
Local Sidereal Time
09:18:08
Azimuth
Unknown
Elevation
Unknown
Doppler factor
Unknown
Orbital elements
Apogee altitude
513.586 km
Perigee altitude
503.872 km
Semi-major axis
6,886.866 km
Eccentricity
0.00071
Inclination
97.4408°
RAAN
110.3743°
Arg. of periapsis
99.1192°
True anomaly
261.00417°
Mean anomaly
261.084°
Eccentric anomaly
261.04408°
Mean motion
3.79761 °/min
Orbital period
94.8 mins
BSTAR
0.00026981
Loading maneuver chart data...
Computing Atmospheric mass density...
Loading historical data...
Loading historical data...
Loading historical data...
Loading historical data...
Loading historical data...
Loading historical data...
Loading historical data...

Documentation

Showing up to 5 results
|